• In Kazakhstan
  • List of Countries
  • For 7 days
  • Water Temperature
  • Satellite Maps
  • Weather Map
  • News
  • Weather Widgets
  • user-avatar
    Login

    Hourly Weather Canillo

    Today, 22 March, Friday

    Time Temperature Precipitation Wind Pressure Humidity
    00:00 0°C° 0 mm 1 mps 621 mmHg 55%
    01:00 0°C° 0 mm 1 mps 621 mmHg 54%
    02:00 0°C° 0 mm 1 mps 621 mmHg 53%
    03:00 0°C° 0 mm 1 mps 621 mmHg 51%
    04:00 0°C° 0 mm 1 mps 621 mmHg 52%
    05:00 0°C° 0 mm 1 mps 621 mmHg 52%
    06:00 0°C° 0 mm 1 mps 621 mmHg 53%
    07:00 +3°C° 0 mm 1 mps 622 mmHg 49%
    08:00 +6°C° 0 mm 1 mps 624 mmHg 46%
    09:00 +9°C° 0 mm 1 mps 625 mmHg 43%
    10:00 +10°C° 0 mm 1 mps 625 mmHg 42%
    11:00 +11°C° 0 mm 1 mps 626 mmHg 40%
    12:00 +12°C° 0 mm 1 mps 626 mmHg 39%
    13:00 +11°C° 0.1 mm 1 mps 625 mmHg 42%
    14:00 +11°C° 0.1 mm 1 mps 625 mmHg 45%
    15:00 +10°C° 0.1 mm 1 mps 624 mmHg 47%
    16:00 +9°C° 0.1 mm 1 mps 624 mmHg 54%
    17:00 +6°C° 0.1 mm 0 mps 623 mmHg 60%
    18:00 +4°C° 0.1 mm 0 mps 622 mmHg 67%
    19:00 +3°C° 0 mm 0 mps 622 mmHg 70%
    20:00 +3°C° 0 mm 1 mps 622 mmHg 73%
    21:00 +3°C° 0 mm 1 mps 622 mmHg 76%
    22:00 +2°C° 0 mm 1 mps 622 mmHg 76%
    23:00 +2°C° 0 mm 1 mps 622 mmHg 76%

    Tomorrow, 23 March, Saturday

    Time Temperature Precipitation Wind Pressure Humidity
    00:00 +2°C° 0 mm 1 mps 622 mmHg 76%
    01:00 +2°C° 0 mm 1 mps 622 mmHg 75%
    02:00 +2°C° 0 mm 1 mps 621 mmHg 74%
    03:00 +2°C° 0 mm 1 mps 621 mmHg 73%
    04:00 +2°C° 0 mm 1 mps 621 mmHg 72%
    05:00 +1°C° 0 mm 1 mps 621 mmHg 71%
    06:00 +1°C° 0 mm 1 mps 621 mmHg 70%
    07:00 +4°C° 0 mm 1 mps 622 mmHg 60%
    08:00 +7°C° 0 mm 1 mps 624 mmHg 51%
    09:00 +9°C° 0 mm 0 mps 625 mmHg 42%
    10:00 +11°C° 0 mm 1 mps 625 mmHg 39%
    11:00 +12°C° 0 mm 1 mps 625 mmHg 36%
    12:00 +13°C° 0 mm 1 mps 626 mmHg 33%
    13:00 +13°C° 0 mm 1 mps 625 mmHg 35%
    14:00 +12°C° 0 mm 1 mps 624 mmHg 37%
    15:00 +12°C° 0 mm 2 mps 624 mmHg 38%
    16:00 +10°C° 0 mm 1 mps 623 mmHg 47%
    17:00 +8°C° 0 mm 1 mps 622 mmHg 56%
    18:00 +6°C° 0 mm 1 mps 621 mmHg 65%
    19:00 +5°C° 0 mm 1 mps 621 mmHg 68%
    20:00 +4°C° 0 mm 1 mps 621 mmHg 71%
    21:00 +3°C° 0 mm 1 mps 621 mmHg 75%
    22:00 +3°C° 0 mm 1 mps 621 mmHg 74%
    23:00 +3°C° 0 mm 1 mps 621 mmHg 73%

    Day after tomorrow, 24 March, Sunday

    Time Temperature Precipitation Wind Pressure Humidity
    00:00 +3°C° 0 mm 1 mps 620 mmHg 72%
    01:00 +3°C° 0 mm 1 mps 620 mmHg 69%
    02:00 +3°C° 0 mm 1 mps 620 mmHg 66%
    03:00 +3°C° 0 mm 1 mps 620 mmHg 64%
    04:00 +3°C° 0 mm 1 mps 620 mmHg 62%
    05:00 +2°C° 0 mm 1 mps 620 mmHg 60%
    06:00 +2°C° 0 mm 1 mps 620 mmHg 59%
    07:00 +5°C° 0 mm 1 mps 621 mmHg 52%
    08:00 +8°C° 0 mm 1 mps 623 mmHg 46%
    09:00 +10°C° 0 mm 1 mps 624 mmHg 40%
    10:00 +11°C° 0 mm 1 mps 624 mmHg 39%
    11:00 +12°C° 0 mm 1 mps 625 mmHg 38%
    12:00 +13°C° 0 mm 1 mps 625 mmHg 37%
    13:00 +13°C° 0.1 mm 1 mps 624 mmHg 40%
    14:00 +12°C° 0.1 mm 1 mps 624 mmHg 44%
    15:00 +12°C° 0.1 mm 1 mps 623 mmHg 47%
    16:00 +10°C° 0.2 mm 1 mps 623 mmHg 56%
    17:00 +9°C° 0.2 mm 1 mps 622 mmHg 65%
    18:00 +7°C° 0.2 mm 1 mps 621 mmHg 74%
    19:00 +6°C° 0 mm 1 mps 621 mmHg 79%
    20:00 +5°C° 0 mm 1 mps 621 mmHg 84%
    21:00 +4°C° 0 mm 1 mps 621 mmHg 88%
    22:00 +4°C° 0 mm 1 mps 621 mmHg 89%
    23:00 +3°C° 0 mm 1 mps 621 mmHg 90%

    25 March, Monday

    Time Temperature Precipitation Wind Pressure Humidity
    00:00 +3°C° 0 mm 1 mps 621 mmHg 91%
    01:00 +3°C° 0 mm 1 mps 620 mmHg 91%
    02:00 +3°C° 0 mm 1 mps 620 mmHg 91%
    03:00 +3°C° 0 mm 1 mps 620 mmHg 91%
    04:00 +2°C° 0 mm 1 mps 620 mmHg 91%
    05:00 +2°C° 0 mm 1 mps 620 mmHg 90%
    06:00 +2°C° 0 mm 1 mps 620 mmHg 90%
    07:00 +4°C° 0 mm 1 mps 621 mmHg 78%
    08:00 +7°C° 0 mm 1 mps 622 mmHg 66%
    09:00 +9°C° 0 mm 1 mps 623 mmHg 55%
    10:00 +10°C° 0 mm 1 mps 623 mmHg 50%
    11:00 +12°C° 0 mm 1 mps 624 mmHg 46%
    12:00 +13°C° 0 mm 1 mps 624 mmHg 42%
    13:00 +12°C° 0 mm 2 mps 623 mmHg 46%
    14:00 +10°C° 0 mm 2 mps 622 mmHg 50%
    15:00 +10°C° 0 mm 2 mps 622 mmHg 54%
    16:00 +8°C° 0.1 mm 2 mps 621 mmHg 64%
    17:00 +7°C° 0.1 mm 2 mps 621 mmHg 73%
    18:00 +5°C° 0.1 mm 2 mps 620 mmHg 82%
    19:00 +6°C° 0 mm 1 mps 620 mmHg 86%
    20:00 +5°C° 0 mm 1 mps 620 mmHg 90%
    21:00 +4°C° 0 mm 1 mps 620 mmHg 94%
    22:00 +3°C° 0 mm 1 mps 620 mmHg 92%
    23:00 +2°C° 0 mm 1 mps 619 mmHg 90%

    26 March, Tuesday

    Time Temperature Precipitation Wind Pressure Humidity
    00:00 +2°C° 0 mm 1 mps 619 mmHg 88%
    01:00 +1°C° 0 mm 1 mps 619 mmHg 82%
    02:00 +1°C° 0 mm 1 mps 619 mmHg 75%
    03:00 -1°C° 0 mm 2 mps 619 mmHg 69%
    04:00 -1°C° 0 mm 2 mps 619 mmHg 68%
    05:00 -1°C° 0 mm 2 mps 619 mmHg 67%
    06:00 -1°C° 0 mm 2 mps 619 mmHg 66%
    07:00 +4°C° 0 mm 1 mps 620 mmHg 55%
    08:00 +7°C° 0 mm 1 mps 622 mmHg 44%
    09:00 +10°C° 0 mm 1 mps 623 mmHg 34%
    10:00 +12°C° 0 mm 1 mps 624 mmHg 32%
    11:00 +13°C° 0 mm 1 mps 624 mmHg 30%
    12:00 +14°C° 0 mm 1 mps 625 mmHg 28%
    13:00 +14°C° 0 mm 1 mps 625 mmHg 31%
    14:00 +14°C° 0 mm 1 mps 624 mmHg 34%
    15:00 +14°C° 0 mm 1 mps 624 mmHg 37%
    16:00 +11°C° 0 mm 1 mps 624 mmHg 46%
    17:00 +9°C° 0 mm 1 mps 623 mmHg 56%
    18:00 +7°C° 0 mm 1 mps 622 mmHg 65%
    19:00 +6°C° 0 mm 1 mps 622 mmHg 71%
    20:00 +5°C° 0 mm 1 mps 623 mmHg 78%
    21:00 +3°C° 0 mm 2 mps 623 mmHg 84%
    22:00 +3°C° 0 mm 2 mps 623 mmHg 85%
    23:00 +2°C° 0 mm 2 mps 623 mmHg 86%

    27 March, Wednesday

    Time Temperature Precipitation Wind Pressure Humidity
    00:00 +2°C° 0 mm 2 mps 623 mmHg 87%
    01:00 +2°C° 0 mm 2 mps 622 mmHg 84%
    02:00 +2°C° 0 mm 2 mps 622 mmHg 81%
    03:00 +1°C° 0 mm 2 mps 622 mmHg 79%
    04:00 +1°C° 0 mm 2 mps 622 mmHg 74%
    05:00 +1°C° 0 mm 2 mps 622 mmHg 69%
    06:00 +1°C° 0 mm 2 mps 623 mmHg 65%
    07:00 +3°C° 0 mm 2 mps 624 mmHg 55%
    08:00 +6°C° 0 mm 2 mps 625 mmHg 45%
    09:00 +8°C° 0 mm 2 mps 626 mmHg 35%
    10:00 +9°C° 0 mm 2 mps 626 mmHg 33%
    11:00 +12°C° 0 mm 2 mps 627 mmHg 31%
    12:00 +13°C° 0 mm 2 mps 627 mmHg 29%
    13:00 +13°C° 0 mm 2 mps 627 mmHg 31%
    14:00 +13°C° 0 mm 2 mps 627 mmHg 33%
    15:00 +13°C° 0 mm 2 mps 627 mmHg 34%
    16:00 +11°C° 0 mm 1 mps 626 mmHg 45%
    17:00 +9°C° 0 mm 1 mps 625 mmHg 56%
    18:00 +7°C° 0 mm 1 mps 624 mmHg 66%
    19:00 +6°C° 0 mm 1 mps 624 mmHg 71%
    20:00 +5°C° 0 mm 1 mps 624 mmHg 76%
    21:00 +3°C° 0 mm 1 mps 624 mmHg 81%
    22:00 +3°C° 0 mm 1 mps 624 mmHg 81%
    23:00 +3°C° 0 mm 1 mps 624 mmHg 82%
    Show more